Terug naar catalogus

COSMOS 1275 DEB

ActiefPO
NORAD 17620·DEBRIS·🇷🇺 Russia

Gelanceerd Jun 4, 1981 vanaf Plesetsk Cosmodrome

Loading…

Volgende Passages (komende 24 uur)

TLE

VersSource: Space-Track

Epoch: Sep 14, 2026, 19:25 UTC

1 17620U 81053KP  26257.80932488  .00004079  00000-0  12107-2 0  9990
2 17620  83.1710  33.1968 0018246 335.8835  24.1503 14.43013640126587

Volg COSMOS 1275 DEB in realtime met AllMySat

Download on the App Store